Weather History for Roanoke, VA

Change the Weather History Date:

Saturday, December 8, 2012

  Actual Average Record
Temperature  
Mean Temperature 54 °F 40 °F  
Max Temperature 68 °F 50 °F 74 °F (1980)
Min Temperature 39 °F 32 °F 14 °F (1954)
Degree Days  
Heating Degree Days 11 24  
Month to date heating degree days 110 187  
Since 1 July heating degree days 997 991  
Cooling Degree Days 0 0  
Month to date cooling degree days 0 0  
Year to date cooling degree days 1423 1208  
Growing Degree Days 4 (Base 50)    
Moisture  
Dew Point 44 °F    
Average Humidity 76    
Maximum Humidity 100    
Minimum Humidity 52    
Precipitation  
Precipitation 0.00 in 0.11 in 0.85 in (1924)
Month to date precipitation T 0.84  
Year to date precipitation 30.33 39.15  
Snow  
Snow 0.00 in - - ()
Month to date snowfall 0.0  
Since 1 July snowfall T  
Snow Depth 0.00 in    
Sea Level Pressure  
Sea Level Pressure 29.99 in    
Wind  
Wind Speed 6 mph (WSW)    
Max Wind Speed 17 mph    
Max Gust Speed 23 mph    
Visibility 8 miles    
Events Fog    
T = Trace of Precipitation, MM = Missing Value Source: NWS Daily Summary

Daily Weather History Graph

Daily Weather History Graph

Search for Another Location

Airport:

Trip Planner

Search our weather history database for the weather conditions in past years. The results will help you decide how hot, cold, wet, or windy it might be!

Date:

Astronomy

Dec. 08, 2012 Rise Set
Actual Time 7:21 AM EST 5:02 PM EST
Civil Twilight 6:52 AM EST 5:31 PM EST
Nautical Twilight 6:20 AM EST 6:03 PM EST
Astronomical Twilight 5:48 AM EST 6:35 PM EST
Moon 1:50 AM EST (12/8) 1:26 PM EST (12/8)
Length of Visible Light 10h 38m
Length of Day
9h 40m
Waning Crescent, 28% of the Moon is Illuminated
Dec 8
Waning Crescent
Dec 13
New
Dec 20
First Quarter
Dec 28
Full
Jan 4
Last Quarter

Hourly Weather History & Observations

Time (EST) Temp. Windchill Dew Point Humidity Pressure Visibility Wind Dir Wind Speed Gust Speed Precip Events Conditions
12:54 AM 44.1 °F - 41.0 °F 89% 30.01 in 10.0 mi Calm Calm - N/A   Overcast
1:44 AM 42.8 °F - 39.2 °F 87% 29.99 in 8.0 mi Calm Calm - N/A   Overcast
1:54 AM 44.1 °F - 41.0 °F 89% 29.99 in 7.0 mi Calm Calm - N/A   Overcast
2:07 AM 44.6 °F - 42.8 °F 93% 29.98 in 3.0 mi Calm Calm - N/A   Overcast
2:46 AM 41.0 °F - 39.2 °F 93% 29.98 in 8.0 mi Calm Calm - N/A   Scattered Clouds
2:54 AM 41.0 °F - 39.0 °F 93% 29.99 in 8.0 mi Calm Calm - N/A   Partly Cloudy
3:54 AM 41.0 °F - 37.9 °F 89% 29.98 in 8.0 mi Calm Calm - N/A   Partly Cloudy
4:06 AM 39.2 °F - 37.4 °F 93% 29.97 in 0.5 mi Calm Calm - N/A Fog Fog
4:33 AM 39.2 °F - 37.4 °F 93% 29.97 in 0.5 mi Calm Calm - N/A Fog Fog
4:54 AM 39.0 °F - 37.0 °F 93% 29.98 in 0.5 mi Calm Calm - N/A Fog Fog
5:54 AM 39.2 °F - 39.2 °F 100% 29.97 in 5.0 mi Calm Calm - N/A   Scattered Clouds
6:54 AM 43.0 °F 38.8 °F 41.0 °F 93% 29.99 in 5.0 mi NW 6.9 mph - N/A   Scattered Clouds
7:54 AM 48.9 °F - 44.1 °F 83% 29.99 in 10.0 mi West 15.0 mph - N/A   Clear
8:54 AM 52.0 °F - 46.0 °F 80% 29.99 in 10.0 mi West 10.4 mph - N/A   Clear
9:54 AM 54.0 °F - 46.0 °F 75% 30.01 in 10.0 mi East 4.6 mph - N/A   Clear
10:54 AM 60.1 °F - 48.9 °F 67% 29.99 in 10.0 mi West 15.0 mph 20.7 mph N/A   Clear
11:54 AM 63.0 °F - 48.9 °F 60% 29.96 in 10.0 mi WSW 13.8 mph - N/A   Clear
12:54 PM 64.0 °F - 48.9 °F 58% 29.95 in 10.0 mi West 13.8 mph 19.6 mph N/A   Clear
1:54 PM 64.9 °F - 48.9 °F 56% 29.94 in 10.0 mi WSW 12.7 mph 23.0 mph N/A   Clear
2:54 PM 66.9 °F - 48.9 °F 52% 29.94 in 10.0 mi WSW 13.8 mph 19.6 mph N/A   Partly Cloudy
3:54 PM 66.9 °F - 48.0 °F 51% 29.95 in 10.0 mi WSW 10.4 mph - N/A   Partly Cloudy
4:54 PM 64.9 °F - 46.9 °F 52% 29.97 in 10.0 mi WSW 6.9 mph - N/A   Clear
5:54 PM 64.0 °F - 46.9 °F 54% 29.98 in 10.0 mi WSW 5.8 mph - N/A   Clear
6:54 PM 60.1 °F - 46.0 °F 60% 30.00 in 10.0 mi South 3.5 mph - N/A   Clear
7:54 PM 55.0 °F - 46.0 °F 72% 30.01 in 10.0 mi Calm Calm - N/A   Clear
8:54 PM 55.0 °F - 46.9 °F 74% 30.01 in 10.0 mi Calm Calm - N/A   Clear
9:54 PM 53.6 °F - 46.4 °F 77% 30.03 in 10.0 mi Calm Calm - N/A   Clear
10:54 PM 51.1 °F - 45.0 °F 80% 30.03 in 10.0 mi South 3.5 mph - N/A   Clear
11:54 PM 50.0 °F - 45.0 °F 83% 30.04 in 10.0 mi SSE 3.5 mph - N/A   Clear